CW4859 Weather Reports


Display with metric or nautical units.
time (UTC)temp
F
wind
direction
speed
MPH
gust
MPH
rain 1hr
in
rain 24hr
in
rain mn
in
humidity
%
barometer
mb
20260505124455 67 182 9.0 10.0 0.00 0.00 0.00 64 1008.9
20260505123955 66 174 2.0 13.0 0.00 0.00 0.00 67 1008.9
20260505123455 65 157 13.0 13.0 0.00 0.00 0.00 70 1008.9
20260505122955 64 133 1.0 4.0 0.00 0.00 0.00 72 1009.2
20260505122455 63 170 1.0 5.0 0.00 0.00 0.00 75 1009.2
20260505121955 62 147 2.0 6.0 0.00 0.00 0.00 77 1009.2
20260505121458 61 129 5.0 5.0 0.00 0.00 0.00 79 1008.9
20260505120955 60 180 1.0 3.0 0.00 0.00 0.00 81 1008.9
20260505120455 60 149 0.0 2.0 0.00 0.00 0.00 82 1008.9
20260505115955 59 75 0.0 2.0 0.00 0.00 0.00 82 1008.9
20260505115455 59 75 0.0 0.0 0.00 0.00 0.00 83 1008.9
20260505114955 58 75 0.0 0.0 0.00 0.00 0.00 83 1008.9
20260505114455 58 75 0.0 0.0 0.00 0.00 0.00 83 1008.9
20260505113955 58 75 0.0 0.0 0.00 0.00 0.00 83 1008.9
20260505113455 57 75 0.0 0.0 0.00 0.00 0.00 82 1008.9
20260505112955 57 75 0.0 0.0 0.00 0.00 0.00 82 1008.9
20260505112455 57 75 0.0 0.0 0.00 0.00 0.00 83 1008.9
20260505111955 57 75 0.0 2.0 0.00 0.00 0.00 83 1008.9
20260505111455 57 75 0.0 0.0 0.00 0.00 0.00 83 1008.9
20260505110955 57 75 0.0 0.0 0.00 0.00 0.00 82 1008.9
20260505110455 57 296 0.0 0.0 0.00 0.00 0.00 82 1008.9
20260505101955 57 183 0.0 0.0 0.00 0.00 0.00 79 1008.4
20260505101458 57 183 0.0 0.0 0.00 0.00 0.00 79 1008.3
20260505100957 57 183 0.0 0.0 0.00 0.00 0.00 79 1008.3
20260505100455 57 183 0.0 0.0 0.00 0.00 0.00 78 1008.3
20260505095955 57 183 0.0 0.0 0.00 0.00 0.00 78 1008.2
20260505095455 58 183 0.0 0.0 0.00 0.00 0.00 77 1008.2
20260505094958 58 183 0.0 0.0 0.00 0.00 0.00 77 1008.2
20260505094455 58 183 0.0 0.0 0.00 0.00 0.00 77 1008.2
20260505093955 58 183 0.0 0.0 0.00 0.00 0.00 76 1008.2
20260505093455 58 183 0.0 0.0 0.00 0.00 0.00 76 1008.2
20260505092955 59 183 0.0 0.0 0.00 0.00 0.00 76 1008.1
20260505092458 59 183 0.0 0.0 0.00 0.00 0.00 76 1008.1
20260505091955 59 183 0.0 0.0 0.00 0.00 0.00 76 1008.1
20260505091458 59 183 0.0 0.0 0.00 0.00 0.00 76 1008.0
20260505090955 59 183 0.0 0.0 0.00 0.00 0.00 76 1008.0
20260505090455 59 183 0.0 0.0 0.00 0.00 0.00 76 1008.0
20260505085955 59 183 0.0 0.0 0.00 0.00 0.00 76 1008.1
20260505085455 59 183 0.0 0.0 0.00 0.00 0.00 76 1008.1
20260505084958 59 183 0.0 0.0 0.00 0.00 0.00 76 1008.1
20260505084455 59 183 0.0 0.0 0.00 0.00 0.00 76 1008.2
20260505083958 59 183 0.0 0.0 0.00 0.00 0.00 76 1008.2
20260505083455 59 184 0.0 0.0 0.00 0.00 0.00 76 1008.2
20260505082955 59 184 0.0 1.0 0.00 0.00 0.00 76 1008.3
20260505082455 59 184 0.0 2.0 0.00 0.00 0.00 76 1008.3
20260505081955 59 155 1.0 4.0 0.00 0.00 0.00 76 1008.3
20260505081455 59 163 4.0 4.0 0.00 0.00 0.00 76 1008.3
20260505080955 59 181 2.0 4.0 0.00 0.00 0.00 76 1008.3
20260505080458 59 175 0.0 1.0 0.00 0.00 0.00 75 1008.3
20260505075955 59 175 0.0 3.0 0.00 0.00 0.00 75 1008.2
20260505075455 59 200 0.0 2.0 0.00 0.00 0.00 74 1008.2
20260505074955 59 200 0.0 0.0 0.00 0.00 0.00 74 1008.2
20260505074458 59 200 0.0 1.0 0.00 0.00 0.00 74 1008.1
20260505073955 59 200 0.0 1.0 0.00 0.00 0.00 74 1008.1
20260505073455 59 200 1.0 3.0 0.00 0.00 0.00 74 1008.1
20260505072958 59 200 3.0 3.0 0.00 0.00 0.00 74 1007.9
20260505072455 59 200 1.0 4.0 0.00 0.00 0.00 74 1007.9
20260505071955 59 157 2.0 4.0 0.00 0.00 0.00 74 1007.9
20260505071455 59 184 3.0 4.0 0.00 0.00 0.00 74 1007.8
20260505070955 59 188 4.0 5.0 0.00 0.00 0.00 74 1007.8
20260505070455 59 171 1.0 6.0 0.00 0.00 0.00 74 1007.8
20260505065958 59 177 1.0 5.0 0.00 0.00 0.00 74 1007.8
20260505065455 59 162 0.0 6.0 0.00 0.00 0.00 73 1007.8
20260505064957 59 170 1.0 5.0 0.00 0.00 0.00 73 1007.8
20260505064457 59 188 2.0 3.0 0.00 0.00 0.00 73 1007.8
20260505063954 60 161 1.0 3.0 0.00 0.00 0.00 73 1007.8
20260505063457 60 175 1.0 4.0 0.00 0.00 0.00 72 1007.8
20260505062955 60 162 2.0 5.0 0.00 0.00 0.00 72 1007.8
20260505062455 60 155 1.0 5.0 0.00 0.00 0.00 72 1007.8
20260505061954 60 165 2.0 6.0 0.00 0.00 0.00 72 1007.8
20260505061455 60 184 1.0 3.0 0.00 0.00 0.00 71 1007.9
20260505060954 60 178 2.0 4.0 0.00 0.00 0.00 71 1007.9
20260505060455 60 180 2.0 5.0 0.00 0.00 0.00 70 1007.9
20260505055954 60 166 3.0 7.0 0.00 0.00 0.00 70 1008.1
20260505055454 60 174 1.0 6.0 0.00 0.00 0.00 70 1008.1
20260505054955 61 183 2.0 6.0 0.00 0.00 0.00 69 1008.1
20260505054454 61 178 1.0 4.0 0.00 0.00 0.00 69 1008.3
20260505053957 61 194 4.0 6.0 0.00 0.00 0.00 69 1008.3
20260505053457 61 196 4.0 7.0 0.00 0.00 0.00 69 1008.3
20260505052957 61 173 3.0 7.0 0.00 0.00 0.00 68 1008.3
20260505052454 61 184 7.0 8.0 0.00 0.00 0.00 68 1008.3
20260505051954 61 186 4.0 7.0 0.00 0.00 0.00 68 1008.3
20260505051457 61 186 3.0 7.0 0.00 0.00 0.00 68 1008.3
20260505050954 61 184 4.0 7.0 0.00 0.00 0.00 67 1008.3
20260505050454 61 159 4.0 8.0 0.00 0.00 0.00 67 1008.3
20260505041454 62 188 4.0 7.0 0.00 0.00 0.00 65 1008.2
20260505040957 62 179 7.0 7.0 0.00 0.00 0.00 65 1008.2
20260505040454 62 173 2.0 5.0 0.00 0.00 0.00 65 1008.2
20260505035954 62 165 2.0 5.0 0.00 0.00 0.00 64 1008.2
20260505035454 62 172 1.0 8.0 0.00 0.00 0.00 64 1008.2
20260505034954 62 163 3.0 6.0 0.00 0.00 0.00 64 1008.2
20260505034454 62 181 3.0 5.0 0.00 0.00 0.00 64 1008.3
20260505033954 62 182 2.0 5.0 0.00 0.00 0.00 64 1008.3
20260505033454 62 163 2.0 7.0 0.00 0.00 0.00 63 1008.3
20260505032954 62 167 2.0 5.0 0.00 0.00 0.00 63 1008.3
20260505032457 62 148 2.0 3.0 0.00 0.00 0.00 63 1008.3
20260505031954 63 145 1.0 3.0 0.00 0.00 0.00 62 1008.3
20260505031454 63 132 1.0 4.0 0.00 0.00 0.00 62 1008.5
20260505030954 63 161 2.0 6.0 0.00 0.00 0.00 61 1008.5
20260505030454 63 171 4.0 4.0 0.00 0.00 0.00 61 1008.5
20260505025954 63 148 0.0 5.0 0.00 0.00 0.00 60 1008.5
20260505025457 63 150 1.0 3.0 0.00 0.00 0.00 60 1008.5
20260505024954 63 171 2.0 4.0 0.00 0.00 0.00 59 1008.5
20260505024454 63 146 1.0 3.0 0.00 0.00 0.00 58 1008.4
20260505023954 64 145 0.0 4.0 0.00 0.00 0.00 57 1008.4
20260505023454 64 148 2.0 4.0 0.00 0.00 0.00 57 1008.4
20260505022957 64 139 0.0 3.0 0.00 0.00 0.00 56 1008.6
20260505022454 64 134 2.0 2.0 0.00 0.00 0.00 55 1008.6
20260505021957 64 144 1.0 3.0 0.00 0.00 0.00 55 1008.6
20260505021454 65 136 1.0 4.0 0.00 0.00 0.00 54 1008.6
20260505020954 65 138 1.0 5.0 0.00 0.00 0.00 53 1008.6
20260505020454 65 150 2.0 5.0 0.00 0.00 0.00 52 1008.6
20260505015954 65 202 5.0 5.0 0.00 0.00 0.00 51 1008.5
20260505015454 65 163 3.0 5.0 0.00 0.00 0.00 51 1008.5
20260505014954 65 157 5.0 5.0 0.00 0.00 0.00 50 1008.5
20260505014454 66 130 1.0 5.0 0.00 0.00 0.00 49 1008.3
20260505013954 66 171 2.0 4.0 0.00 0.00 0.00 48 1008.3
20260505013454 66 154 2.0 3.0 0.00 0.00 0.00 46 1008.3
20260505012954 67 149 3.0 3.0 0.00 0.00 0.00 45 1008.3
20260505012454 67 119 2.0 4.0 0.00 0.00 0.00 45 1008.3
20260505011954 67 145 2.0 3.0 0.00 0.00 0.00 44 1008.3
20260505011454 67 148 3.0 4.0 0.00 0.00 0.00 44 1007.8
20260505010954 67 153 0.0 2.0 0.00 0.00 0.00 43 1007.8
20260505010454 68 153 1.0 2.0 0.00 0.00 0.00 43 1007.8
20260505005954 68 150 2.0 3.0 0.00 0.00 0.00 43 1007.8
20260505005454 68 148 1.0 7.0 0.00 0.00 0.00 43 1007.8
20260505004954 68 148 1.0 3.0 0.00 0.00 0.00 42 1007.8
20260505004454 69 148 0.0 3.0 0.00 0.00 0.00 41 1007.7
20260505003954 69 196 1.0 2.0 0.00 0.00 0.00 41 1007.7
20260505003454 69 196 0.0 2.0 0.00 0.00 0.00 40 1007.7
20260505002954 69 196 0.0 1.0 0.00 0.00 0.00 40 1007.6
20260505002457 70 196 0.0 5.0 0.00 0.00 0.00 39 1007.6
20260505001954 70 164 1.0 7.0 0.00 0.00 0.00 39 1007.6
20260505001457 70 167 3.0 5.0 0.00 0.00 0.00 39 1007.4
20260505000954 70 195 5.0 6.0 0.00 0.00 0.00 39 1007.4
20260505000454 70 157 2.0 7.0 0.00 0.00 0.00 38 1007.4
20260504235956 71 181 5.0 6.0 0.00 0.00 0.00 38 1007.3
20260504235454 71 180 2.0 9.0 0.00 0.00 0.00 38 1007.3
20260504234957 71 175 4.0 10.0 0.00 0.00 0.00 37 1007.3
20260504234454 71 171 1.0 8.0 0.00 0.00 0.00 37 1007.2
20260504233954 71 180 4.0 7.0 0.00 0.00 0.00 37 1007.2
20260504233454 71 188 8.0 8.0 0.00 0.00 0.00 37 1007.2
20260504232954 72 179 9.0 14.0 0.00 0.00 0.00 36 1007.1
20260504232454 72 153 2.0 10.0 0.00 0.00 0.00 36 1007.1
20260504231954 72 144 7.0 12.0 0.00 0.00 0.00 35 1007.1
20260504231454 72 169 4.0 8.0 0.00 0.00 0.00 35 1007.1
20260504230954 72 184 7.0 13.0 0.00 0.00 0.00 35 1007.1
20260504230454 72 166 8.0 10.0 0.00 0.00 0.00 35 1007.1
20260504225954 72 186 11.0 13.0 0.00 0.00 0.00 34 1006.9
20260504225454 72 154 5.0 10.0 0.00 0.00 0.00 35 1006.9
20260504224954 72 174 4.0 11.0 0.00 0.00 0.00 35 1006.9
20260504224454 72 157 2.0 12.0 0.00 0.00 0.00 35 1007.0
20260504223956 73 187 5.0 9.0 0.00 0.00 0.00 34 1007.0
20260504223454 73 186 4.0 10.0 0.00 0.00 0.00 35 1007.0
20260504222954 73 186 3.0 16.0 0.00 0.00 0.00 33 1007.0
20260504222454 73 175 6.0 12.0 0.00 0.00 0.00 33 1007.0
20260504221956 73 174 3.0 18.0 0.00 0.00 0.00 33 1007.0
20260504221453 73 187 6.0 10.0 0.00 0.00 0.00 33 1007.2
20260504220956 73 171 9.0 14.0 0.00 0.00 0.00 32 1007.2
20260504220454 73 215 6.0 13.0 0.00 0.00 0.00 32 1007.2
20260504215954 73 176 8.0 13.0 0.00 0.00 0.00 33 1007.2
20260504215453 73 121 3.0 11.0 0.00 0.00 0.00 34 1007.2
20260504214953 73 181 6.0 16.0 0.00 0.00 0.00 33 1007.2
20260504214453 73 190 3.0 8.0 0.00 0.00 0.00 33 1007.2
20260504213953 73 183 3.0 13.0 0.00 0.00 0.00 33 1007.2
20260504213453 73 159 6.0 13.0 0.00 0.00 0.00 34 1007.2
20260504212953 73 200 8.0 11.0 0.00 0.00 0.00 33 1007.2
20260504212453 73 185 4.0 13.0 0.00 0.00 0.00 32 1007.2
20260504211953 74 191 7.0 14.0 0.00 0.00 0.00 32 1007.2
20260504211453 73 173 4.0 16.0 0.00 0.00 0.00 32 1007.3
20260504210953 74 204 7.0 9.0 0.00 0.00 0.00 33 1007.3
20260504210453 74 142 3.0 14.0 0.00 0.00 0.00 33 1007.3
20260504205956 74 171 8.0 14.0 0.00 0.00 0.00 31 1007.2
20260504205453 74 169 4.0 12.0 0.00 0.00 0.00 31 1007.2
20260504204956 74 141 5.0 17.0 0.00 0.00 0.00 31 1007.2
20260504204453 74 148 11.0 14.0 0.00 0.00 0.00 33 1007.3
20260504203953 74 165 5.0 12.0 0.00 0.00 0.00 32 1007.3
20260504203453 74 188 7.0 17.0 0.00 0.00 0.00 31 1007.3
20260504202953 74 194 9.0 13.0 0.00 0.00 0.00 32 1007.3
20260504202456 74 165 5.0 13.0 0.00 0.00 0.00 31 1007.3
20260504201953 74 215 6.0 14.0 0.00 0.00 0.00 31 1007.3
20260504201453 73 141 6.0 12.0 0.00 0.00 0.00 32 1007.3
20260504200953 73 159 6.0 18.0 0.00 0.00 0.00 31 1007.3
20260504200453 73 163 3.0 12.0 0.00 0.00 0.00 32 1007.3
20260504195953 73 180 7.0 13.0 0.00 0.00 0.00 32 1007.7
20260504195453 73 135 3.0 12.0 0.00 0.00 0.00 30 1007.7
20260504194953 73 181 8.0 12.0 0.00 0.00 0.00 32 1007.7
20260504194453 73 180 7.0 17.0 0.00 0.00 0.00 31 1007.7
20260504193953 73 178 3.0 13.0 0.00 0.00 0.00 33 1007.7
20260504193456 73 194 4.0 10.0 0.00 0.00 0.00 33 1007.7
20260504192953 73 174 4.0 15.0 0.00 0.00 0.00 32 1008.1
20260504192453 73 170 5.0 13.0 0.00 0.00 0.00 30 1008.1
20260504191953 74 190 5.0 15.0 0.00 0.00 0.00 30 1008.1
20260504191453 74 208 3.0 14.0 0.00 0.00 0.00 31 1008.1
20260504190953 74 220 3.0 13.0 0.00 0.00 0.00 32 1008.1
20260504190453 74 144 5.0 15.0 0.00 0.00 0.00 31 1008.1
20260504185953 74 188 7.0 9.0 0.00 0.00 0.00 32 1008.3
20260504185453 74 177 4.0 16.0 0.00 0.00 0.00 31 1008.3
20260504184953 74 195 6.0 7.0 0.00 0.00 0.00 33 1008.3
20260504184453 73 123 5.0 14.0 0.00 0.00 0.00 32 1008.7
20260504183953 73 192 7.0 13.0 0.00 0.00 0.00 32 1008.7
20260504183453 73 338 2.0 15.0 0.00 0.00 0.00 31 1008.7
20260504182956 73 155 3.0 11.0 0.00 0.00 0.00 33 1008.7
20260504182453 73 163 2.0 12.0 0.00 0.00 0.00 33 1008.7
20260504181953 73 157 4.0 10.0 0.00 0.00 0.00 33 1008.7
20260504181456 73 188 5.0 13.0 0.00 0.00 0.00 33 1008.8
20260504180953 73 154 8.0 14.0 0.00 0.00 0.00 34 1008.8
20260504180453 73 191 7.0 15.0 0.00 0.00 0.00 33 1008.8
20260504175953 73 153 12.0 14.0 0.00 0.00 0.00 35 1009.2
20260504175456 73 193 7.0 14.0 0.00 0.00 0.00 33 1009.2
20260504174953 73 214 8.0 12.0 0.00 0.00 0.00 34 1009.2
20260504174453 73 206 6.0 10.0 0.00 0.00 0.00 35 1009.2
20260504173953 73 187 9.0 14.0 0.00 0.00 0.00 34 1009.2
20260504173453 73 163 8.0 12.0 0.00 0.00 0.00 34 1009.2
20260504172953 73 205 6.0 11.0 0.00 0.00 0.00 33 1009.3
20260504172453 73 206 5.0 10.0 0.00 0.00 0.00 35 1009.3
20260504171953 74 188 7.0 11.0 0.00 0.00 0.00 32 1009.3
20260504171453 74 172 9.0 9.0 0.00 0.00 0.00 34 1009.6
20260504170953 74 190 7.0 13.0 0.00 0.00 0.00 35 1009.6
20260504170453 74 227 4.0 14.0 0.00 0.00 0.00 33 1009.6
20260504150953 68 195 1.0 9.0 0.00 0.00 0.00 46 1011.1
20260504150452 67 181 5.0 9.0 0.00 0.00 0.00 46 1011.1
20260504140953 64 182 6.0 10.0 0.00 0.00 0.00 53 1011.3
20260504140452 63 193 7.0 11.0 0.00 0.00 0.00 51 1011.3
20260504130452 60 194 7.0 10.0 0.00 0.00 0.00 59 1011.5